カタログに戻る

COSMOS 1275 DEB

運用中PO
NORAD 42203·DEBRIS·🇷🇺 Russia

打ち上げ Jun 4, 1981 から Plesetsk Cosmodrome

Loading…

次のパス (今後24時間)

TLE

経年Source: Space-Track

元期: Sep 9, 2026, 03:49 UTC

1 42203U 81053TT  26252.15919304  .00000981  00000-0  95139-3 0  9995
2 42203  82.9959 203.0667 0113962 194.9642 225.1425 13.75907674640006

AllMySatでCOSMOS 1275 DEBをリアルタイム追跡

Download on the App Store